Flag for U.S.A. Weather past 2 weeks in Wichita Falls, Texas, U.S.A.

Now
74 °F

Scattered clouds.


Feels Like: 77 °F
Forecast: 42 / 74 °F
Wind: 5 mph from Southwest

Location: Wichita Falls - Sheppard Air Force Base

Current Time: Jan 27, 2015 at 5:47:28 PM

Latest Report: Jan 27, 2015 at 4:52 PM


Visibility: 10 mi

Pressure: 30.06 "Hg

Humidity: 29%

Dew point: 40 °F

Location of Wichita FallsLocation

Historic Weather in Wichita Falls — Graph

°F

Wichita Falls temperature yesterday

Maximum temperature yesterday: 73 °F (at 3:52 PM)
Minimum temperature yesterday: 34 °F (at 5:52 AM)
Average temperature yesterday: 53 °F

Past Weeks' High & Low Weather Summary

 TemperatureHumidityPressure
High76 °F (Jan 27, 3:52 PM)93% (Jan 22, 2:52 AM)30.56 "Hg (Jan 22, 2:52 AM)
Low27 °F (Jan 13, 8:52 PM)12% (Jan 18, 3:52 PM)29.84 "Hg (Jan 17, 5:52 AM)
Average45 °F57%30.18 "Hg
* Reported Jan 12 4:59 PM — Jan 27 4:52 PM, Wichita Falls, Weather by CustomWeather, © 2014

Note: Actual official high and low records may vary slightly from our data, if they occured in-between our weather recording intervals... More about our weather records

Advertising

Wichita Falls weather history for previous 24 hours

 ConditionsComfort  
Time TempWeatherWind HumidityBarometerVisibility
4:52 PM
Jan 27
74 °FSunny.5 mph29%30.06 "Hg10 mi
3:52 PM76 °FScattered clouds.8 mph26%30.08 "Hg10 mi
2:52 PM75 °FSunny.9 mph30%30.09 "Hg10 mi
1:52 PM73 °FScattered clouds.8 mph29%30.10 "Hg10 mi
12:52 PM71 °FSunny.7 mph32%30.12 "Hg10 mi
11:52 AM66 °FSunny.3 mph40%30.16 "Hg10 mi
10:52 AM61 °FSunny.3 mph46%30.18 "Hg10 mi
9:52 AM54 °FPassing clouds.3 mph57%30.18 "Hg10 mi
8:52 AM49 °FPassing clouds.3 mph64%30.17 "Hg10 mi
7:52 AM44 °FPassing clouds.6 mph71%30.15 "Hg10 mi
6:52 AM41 °FClear.6 mph80%30.13 "Hg10 mi
5:52 AM44 °FClear.6 mph71%30.10 "Hg10 mi
4:52 AM48 °FClear.7 mph63%30.09 "Hg10 mi
3:52 AM48 °FClear.6 mph61%30.08 "Hg10 mi
2:52 AM50 °FClear.6 mph59%30.08 "Hg10 mi
1:52 AM50 °FClear.9 mph59%30.08 "Hg10 mi
12:52 AM54 °FClear.6 mph51%30.08 "Hg10 mi
11:52 PM
Jan 26
54 °FClear.9 mph51%30.09 "Hg10 mi
10:52 PM55 °FClear.7 mph51%30.08 "Hg10 mi
9:52 PM53 °FClear.5 mph56%30.08 "Hg10 mi
8:52 PM60 °FClear.6 mph44%30.07 "Hg10 mi
7:52 PM61 °FClear.9 mph46%30.06 "Hg10 mi
6:52 PM61 °FClear.9 mph46%30.06 "Hg10 mi
5:52 PM67 °FPassing clouds.10 mph36%30.05 "Hg10 mi
Weather by CustomWeather, © 2014

See weather overviewHow to use our weather pages